Tracking 28790 objects as of 19-Apr-2024
HD Live streaming from Space Station
objects crossing your sky now

STARLINK-4721

Track STARLINK-4721 now!
10-day predictions
STARLINK-4721 is classified as:


NORAD ID: 53796
Int'l Code: 2022-111Z
Perigee: 545.8 km
Apogee: 547.9 km
Inclination: 53.2 °
Period: 95.4 minutes
Semi major axis: 6917 km
RCS: Unknown
Launch date: September 11, 2022
Source: United States (US)
Launch site: AIR FORCE EASTERN TEST RANGE (AFETR)
Your satellite tracking list
Your tracking list is empty




NASA's NSSDC Master Catalog

Two Line Element Set (TLE):
1 53796U 22111Z   24110.22219347  .00000335  00000-0  39147-4 0  9994
2 53796  53.2167 108.9233 0001497 118.9402 241.1741 15.08840603 89167
Source of the keplerian elements: AFSPC